Regional Weather Roundup
Issued by NWS

Home | Current Version | Previous Version | Graphics & Text | Print | Product List | Glossary On
Versions: 1 2 3 4 5 6 7 8 9 10 11 12 13 14 15 16 17 18 19 20 21 22 23 24 25 26 27 28 29 30 31 32 33 34 35 36 37 38 39 40 41 42 43 44 45 46 47 48 49 50
000
ASUS45 KTFX 011604
RWRMT
MONTANA HOURLY WEATHER ROUNDUP
NATIONAL WEATHER SERVICE GREAT FALLS MT
1004 AM MDT WED APR 1 2015

NOTE: "FAIR" INDICATES FEW OR NO CLOUDS BELOW 12000 FEET WITH NO
SIGNIFICANT WEATHER AND/OR OBSTRUCTIONS TO VISIBILITY.

* THESE STATIONS ARE NOT UNDER NWS QUALITY CONTROL. THEY DO NOT
   REPORT WEATHER SUCH AS PRECIPITATION OR FOG.

MTZ001>007-043-011700-
WEST OF THE DIVIDE
CITY           SKY/WX    TMP DP  RH WIND       PRES   REMARKS
KALISPELL      PTCLDY    41  21  45 S13       29.97S
MISSOULA       CLOUDY    37  25  62 W9        30.07R WCI  30
BUTTE          PTSUNNY   32  12  43 VRB5      29.97F WCI  27
MULLAN PASS    CLOUDY    21  19  92 VRB7      29.98R WCI  12
* ESSEX        N/A       34  20  57 SE6G14     N/A   WCI  29
* LINCOLN      N/A       32  16  52 SW4G16     N/A
* LOOKOUT PASS N/A       29  23  78 NE4G11     N/A
* POLSON       N/A       35  20  54 W2G9       N/A
* RONAN APT    PTSUNNY   39  21  48 SW13G22    N/A   WCI  31
* SEELEY LAKE  N/A       34  19  54 NW6G15     N/A   WCI  29
* THOMP F APT  SUNNY     32  14  47 NW4G21     N/A
* YAAK HILL    N/A       35  25  67 NW1        N/A
$$

MTZ008-052>055-011700-
SOUTHWEST MONTANA
CITY           SKY/WX    TMP DP  RH WIND       PRES   REMARKS
BOZEMAN        PTCLDY    37  21  52 SW10      29.97S WCI  30
DILLON         PTCLDY    36  18  48 SW23      29.99S WCI  24
* W YELLOWSTON PTSUNNY   30  24  78 SW3G8      N/A
* THREE FORKS  PTCLDY    43  16  34 SW16G26    N/A
* TWIN BRIDGES PTCLDY    34  21  59 E6         N/A   WCI  29
* BOULDER HILL N/A       34  11  38 W6G13      N/A   WCI  29
* HOMESTAKE PS N/A       30  12  47 W7G12      N/A   WCI  23
* MONIDA PASS  N/A       28  14  56 NW17       N/A   WCI  16
* RAYNOLDS PAS N/A       30  -7  19 NE4        N/A
* WHITEHALL    N/A       40  18  41 W8G14      N/A   WCI  35
* WISE RIVER   N/A       33  14  45 W13G21     N/A   WCI  24
$$

MTZ009>010-012-014-046-048-049-054-011700-
EAST SLOPES AND CENTRAL MONTANA
CITY           SKY/WX    TMP DP  RH WIND       PRES   REMARKS
CUT BANK       PTCLDY    39  19  45 W35G45    29.79R WCI  26
GREAT FALLS    PTCLDY   N/A N/A N/A N/A       29.83S
HELENA         PTCLDY    41  16  36 W24G49    29.90F
MALMSTROM AFB  PTCLDY    43  12  28 W25G33    29.86R
* DEARBORN     N/A       41  14  33 SE19G26    N/A
* EAST GLACIER N/A       31  20  64 W14        N/A   WCI  21
* MONARCH      N/A       34  12  40 SW19G26    N/A   WCI  23
* PENDROY      N/A       39  16  39 NW32G42    N/A   WCI  27
* ROGERS PASS  N/A       30  13  49 E16G30     N/A   WCI  19
* SAINT MARY   N/A       33  20  59 SW11G23    N/A   WCI  24
* SWEET GRASS  N/A       40  20  45 W27G34     N/A   WCI  29
$$

MTZ011-013-016-021-035-040-045-047-050-051-011700-
NORTH CENTRAL MONTANA
CITY           SKY/WX    TMP DP  RH WIND       PRES   REMARKS
HAVRE          CLOUDY    37  34  89 W12       29.81S WCI  29
LEWISTOWN      PTSUNNY   43  16  34 W28G41    29.83R
* N BAR RANCH  SUNNY     39   9  29 NW25G33   29.83R WCI  28
* MALTA APT    PTSUNNY   46  30  54 W22G30     N/A
* CHESTER      N/A       38  28  67 NW3        N/A
* DENTON       N/A       43  19  38 W32G40     N/A
* GEYSER       N/A       40  18  41 W24G40     N/A   WCI  30
* JUDITH GAP   N/A       36  15  42 NW23G30    N/A   WCI  24
* LOMA         N/A       40  17  39 SW8G14     N/A   WCI  35
$$

MTZ017>020-022>027-061-062-011700-
NORTHEAST MONTANA
CITY           SKY/WX    TMP DP  RH WIND       PRES   REMARKS
GLASGOW        PTCLDY    46  27  48 NW29G36   29.71R
GLENDIVE       PTCLDY    50  21  32 W39G46    29.67R
JORDAN         PTSUNNY   46  25  44 NW24G37   29.76R
SIDNEY         PTCLDY    48  28  46 W29G39    29.62R
WOLF POINT     PTSUNNY   48  34  59 W21       29.67R
* BEAVER HILL  N/A       48  23  37 W32G42     N/A
* CIRCLE       N/A       47  31  54 W20G30     N/A
* LINDSAY DVD  N/A       46  24  42 W32G47     N/A
* NAVAJO       N/A       41  34  76 NW29G35    N/A
* SACO         N/A       46  29  52 W25G32     N/A
$$

MTZ028>042-056>058-011700-
SOUTHCENTRAL AND SOUTHEAST MONTANA
CITY           SKY/WX    TMP DP  RH WIND       PRES   REMARKS
BAKER          PTCLDY    50  21  32 NW29G45   29.69R
BILLINGS       CLOUDY    46  18  33 W17       29.87R
LIVINGSTON     PTCLDY    39  21  48 SW29G35   29.91F WCI  27
MILES CITY     LGT RAIN  55  18  23 NW32G40   29.77R
* LAUREL APT   CLOUDY    45  18  34 W20G29     N/A
* ROUNDUP APT  PTSUNNY   45  16  31 W21G26     N/A
* ALZADA       N/A       47  27  46 NW19G25    N/A
* HYSHAM       N/A       42  27  55 W7         N/A
* LAME DEER    N/A       32  31  96 NW14G27    N/A   WCI  22
* REED POINT   N/A       43  24  47 W26G35     N/A
* ROSCOE HILL  N/A       42   4  20 VRB4G22    N/A
$$

REGIONAL REPORTS...DAKOTAS
CITY           SKY/WX    TMP DP  RH WIND       PRES   REMARKS
WILLISTON      PTSUNNY   54  32  43 W24G32    29.59R
DICKINSON      PTSUNNY   48  27  44 NW33G43   29.58R
CROSBY         PTCLDY    48  37  66 NW24G30   29.55R
WATFORD CITY   SUNNY     50  30  46 W24G31    29.58R
BISMARCK       PTCLDY    61  41  48 NW24G35   29.49R
GRAND FORKS    CLOUDY    57  36  46 S22G29    29.37F
FARGO          CLOUDY    63  36  37 S21G26    29.42R
BUFFALO SD     PTCLDY    54  25  33 NW37G45   29.62R
RAPID CITY     PTSUNNY   54  36  51 NW33G41   29.66R
$$

REGIONAL REPORTS...WYOMING/IDAHO/WASHINGTON
CITY           SKY/WX    TMP DP  RH WIND       PRES   REMARKS
GILLETTE       CLOUDY    43  27  53 NW24G35   29.80R
SHERIDAN       CLOUDY    43  25  49 NW25G32   29.88R
CODY           PTCLDY    43  18  37 NW18G26   29.87R
YELLOWSTONE LA PTSUNNY   27  16  63 NW9       29.93R WCI  18
SALMON         CLOUDY    34  28  79 CALM      30.08R VSB 1 3/4
MULLAN PASS    CLOUDY    21  19  92 VRB7      29.98S WCI  12
SAND POINT     PTCLDY    36  28  73 SW3       30.10R
SPOKANE        PTSUNNY   37  30  76 S10       30.11R WCI  30

$$




USA.gov is the U.S. government's official web portal to all federal, state and local government web resources and services.